Weather History for Prague, Czech Republic

Change the Weather History Date:

Tuesday, June 12, 2012

  Actual Average Record
Temperature  
Mean Temperature 59 °F -  
Max Temperature 69 °F 72 °F 89 °F (2003)
Min Temperature 49 °F 52 °F 42 °F (2001)
Degree Days  
Heating Degree Days 6    
Growing Degree Days 9 (Base 50)    
Moisture  
Dew Point 53 °F    
Average Humidity 83    
Maximum Humidity 100    
Minimum Humidity 46    
Precipitation  
Precipitation 0.02 in 0.09 in - ()
Sea Level Pressure  
Sea Level Pressure 29.61 in    
Wind  
Wind Speed 4 mph ()    
Max Wind Speed 15 mph    
Max Gust Speed -    
Visibility 5.0 miles    
Events Rain , Thunderstorm    
Averages and records for this station are not official NWS values.
T = Trace of Precipitation, MM = Missing Value Source: Averaged Metar Reports

Daily Weather History Graph

Daily Weather History Graph

Search for Another Location

Airport:

Trip Planner

Search our weather history database for the weather conditions in past years. The results will help you decide how hot, cold, wet, or windy it might be!

Date:

Astronomy

Jun. 12, 2012 Rise Set
Actual Time 4:53 AM CEST 9:13 PM CEST
Civil Twilight 4:08 AM CEST 9:57 PM CEST
Nautical Twilight 3:03 AM CEST 11:02 PM CEST
Astronomical Twilight 1:35 AM CEST 12:30 AM CEST
Moon 1:06 AM CEST (6/12) 2:13 PM CEST (6/12)
Length of Visible Light 17h 48m
Length of Day
16h 19m
Last Quarter, 41% of the Moon is Illuminated
Jun 12
Last Quarter
Jun 19
New
Jun 27
First Quarter
Jul 3
Full
Jul 11
Last Quarter

Hourly Weather History & Observations

Time (CEST) Temp. Dew Point Humidity Pressure Visibility Wind Dir Wind Speed Gust Speed Precip Events Conditions
12:00 AM 50.0 °F 50.0 °F 100% 29.65 in - South 3.5 mph - N/A   Clear
12:30 AM 50.0 °F 48.2 °F 94% 29.65 in - Variable 2.3 mph - N/A   Clear
1:00 AM 50.0 °F 50.0 °F 100% 29.65 in - South 3.5 mph - N/A   Clear
1:30 AM 51.8 °F 50.0 °F 94% 29.65 in 6.2 mi SSE 4.6 mph - N/A   Partly Cloudy
2:00 AM 51 °F 50 °F 97% 29.65 in 6 mi ESE 2.2 mph - -   Partly Cloudy
2:00 AM 51.8 °F 50.0 °F 94% 29.62 in 6.2 mi ESE 5.8 mph - N/A   Scattered Clouds
2:30 AM 51.8 °F 50.0 °F 94% 29.65 in 6.2 mi Variable 2.3 mph - N/A   Mostly Cloudy
3:00 AM 53.6 °F 51.8 °F 94% 29.65 in 5.0 mi NW 6.9 mph - N/A   Mostly Cloudy
3:30 AM 51.8 °F 51.8 °F 100% 29.65 in 5.0 mi Variable 1.2 mph - N/A   Scattered Clouds
4:00 AM 53.6 °F 51.8 °F 94% 29.62 in 4.3 mi East 3.5 mph - N/A   Partly Cloudy
4:30 AM 51.8 °F 51.8 °F 100% 29.62 in 3.7 mi West 3.5 mph - N/A   Unknown
4:31 AM 51.8 °F 51.8 °F 100% 29.62 in 3.7 mi WSW 4.6 mph - N/A Rain Light Rain
5:00 AM 53.6 °F 51.8 °F 94% 29.65 in 3.1 mi West 4.6 mph - N/A   Mist
5:30 AM 53.6 °F 51.8 °F 94% 29.62 in 3.1 mi WSW 3.5 mph - N/A   Mist
6:00 AM 51.8 °F 51.8 °F 100% 29.62 in 3.7 mi SE 5.8 mph - N/A   Unknown
6:30 AM 51.8 °F 51.8 °F 100% 29.62 in 3.7 mi SSE 3.5 mph - N/A   Unknown
7:00 AM 55.4 °F 53.6 °F 94% 29.62 in 3.7 mi NW 4.6 mph - N/A   Scattered Clouds
7:08 AM 55.4 °F 53.6 °F 94% 29.62 in 1.9 mi NW 5.8 mph - N/A   Mostly Cloudy
7:15 AM 55.4 °F 53.6 °F 94% 29.62 in 1.0 mi NW 4.6 mph - N/A   Mostly Cloudy
7:19 AM 53.6 °F 53.6 °F 100% 29.62 in 1.2 mi NW 4.6 mph - N/A   Mostly Cloudy
7:30 AM 53.6 °F 53.6 °F 100% 29.62 in 1.9 mi NW 3.5 mph - N/A   Mostly Cloudy
7:49 AM 55.4 °F 53.6 °F 94% 29.62 in 2.5 mi WNW 3.5 mph - N/A   Mostly Cloudy
8:00 AM 56 °F 54 °F 90% 29.64 in 3 mi NNW 2.2 mph - -   Mist
8:00 AM 55.4 °F 53.6 °F 94% 29.62 in 3.1 mi WNW 3.5 mph - N/A   Mostly Cloudy
8:30 AM 55.4 °F 53.6 °F 94% 29.62 in 3.7 mi NNW 3.5 mph - N/A   Mostly Cloudy
9:00 AM 57.2 °F 53.6 °F 88% 29.62 in 2.8 mi North 5.8 mph - N/A   Overcast
9:30 AM 55.4 °F 53.6 °F 94% 29.62 in 2.5 mi NNW 5.8 mph - N/A   Overcast
9:47 AM 57.2 °F 53.6 °F 88% 29.62 in 2.8 mi North 3.5 mph - N/A   Mostly Cloudy
10:00 AM 57.2 °F 53.6 °F 88% 29.62 in 3.7 mi North 3.5 mph - N/A   Mostly Cloudy
10:30 AM 59.0 °F 55.4 °F 88% 29.62 in 4.3 mi NNW 4.6 mph - N/A   Mostly Cloudy
11:00 AM 59.0 °F 53.6 °F 82% 29.62 in 5.0 mi North 5.8 mph - N/A   Mostly Cloudy
11:30 AM 60.8 °F 53.6 °F 77% 29.62 in 5.0 mi North 5.8 mph - N/A   Mostly Cloudy
11:50 AM 62.6 °F 55.4 °F 77% 29.62 in 5.0 mi North 5.8 mph - N/A   Scattered Clouds
12:00 PM 62.6 °F 55.4 °F 77% 29.62 in 5.6 mi North 5.8 mph - N/A   Scattered Clouds
12:30 PM 62.6 °F 55.4 °F 77% 29.62 in 6.2 mi NNE 5.8 mph - N/A   Scattered Clouds
1:00 PM 64.4 °F 55.4 °F 73% 29.62 in 6.2 mi North 5.8 mph - N/A   Scattered Clouds
1:30 PM 62.6 °F 53.6 °F 72% 29.62 in 6.2 mi North 5.8 mph - N/A   Scattered Clouds
2:00 PM 65 °F 53 °F 57% 29.58 in 16 mi North 4.5 mph - -   Partly Cloudy
2:00 PM 64.4 °F 53.6 °F 68% 29.59 in 6.2 mi NNW 4.6 mph - N/A   Scattered Clouds
2:30 PM 66.2 °F 53.6 °F 64% 29.59 in 6.2 mi NE 6.9 mph - N/A   Scattered Clouds
3:00 PM 68.0 °F 53.6 °F 60% 29.59 in 6.2 mi North 6.9 mph - N/A   Partly Cloudy
3:30 PM 68.0 °F 50.0 °F 52% 29.59 in 6.2 mi ENE 5.8 mph - N/A   Scattered Clouds
4:00 PM 66.2 °F 51.8 °F 60% 29.59 in 6.2 mi East 3.5 mph - N/A   Scattered Clouds
4:30 PM 66.2 °F 51.8 °F 60% 29.59 in 6.2 mi East 3.5 mph - N/A   Scattered Clouds
5:00 PM 68.0 °F 50.0 °F 52% 29.59 in 6.2 mi North 4.6 mph - N/A   Partly Cloudy
5:30 PM 69.8 °F 48.2 °F 46% 29.56 in 6.2 mi North 5.8 mph - N/A   Partly Cloudy
5:36 PM 69.8 °F 50.0 °F 49% 29.56 in 6.2 mi ESE 9.2 mph - N/A Thunderstorm Thunderstorm
5:45 PM 69.8 °F 50.0 °F 49% 29.56 in 6.2 mi East 15.0 mph - N/A Thunderstorm Thunderstorm
6:00 PM 64.4 °F 53.6 °F 68% 29.56 in 6.2 mi East 13.8 mph - N/A Rain , Thunderstorm Light Thunderstorms and Rain
6:11 PM 62.6 °F 50.0 °F 63% 29.56 in 6.2 mi ESE 9.2 mph - N/A   Partly Cloudy
6:30 PM 60.8 °F 51.8 °F 72% 29.59 in 6.2 mi SE 6.9 mph - N/A Rain Light Rain Showers
7:00 PM 59.0 °F 55.4 °F 88% 29.59 in 6.2 mi South 6.9 mph - N/A   Partly Cloudy
7:30 PM 59.0 °F 55.4 °F 88% 29.59 in 6.2 mi ENE 5.8 mph - N/A   Partly Cloudy
8:00 PM 59 °F 54 °F 79% 29.58 in 28 mi East 8.9 mph - -   Partly Cloudy
8:00 PM 59.0 °F 53.6 °F 82% 29.59 in 6.2 mi ENE 9.2 mph - N/A   Partly Cloudy
8:30 PM 59.0 °F 55.4 °F 88% 29.59 in 6.2 mi East 8.1 mph - N/A   Mostly Cloudy
9:00 PM 59.0 °F 53.6 °F 82% 29.62 in 6.2 mi NNW 9.2 mph - N/A   Mostly Cloudy
9:30 PM 57.2 °F 53.6 °F 88% 29.62 in 6.2 mi Variable 2.3 mph - N/A   Partly Cloudy
10:00 PM 59.0 °F 51.8 °F 77% 29.62 in - NE 3.5 mph - N/A   Clear
10:30 PM 57.2 °F 53.6 °F 88% 29.62 in - NNW 6.9 mph - N/A   Clear
11:00 PM 55.4 °F 53.6 °F 94% 29.62 in - West 6.9 mph - N/A   Clear
11:30 PM 55.4 °F 53.6 °F 94% 29.62 in - West 6.9 mph - N/A   Clear